TimeCEST,TemperatureF,Dew PointF,Humidity,Sea Level PressureIn,VisibilityMPH,Wind Direction,Wind SpeedMPH,Gust SpeedMPH,PrecipitationIn,Events,Conditions,WindDirDegrees,DateUTC
12:25 AM,57.2,57.2,100,30.06,1.3,NE,3.5,-,N/A,,Overcast,40,2012-10-21 22:25:00
12:55 AM,57.2,57.2,100,30.06,0.9,NE,4.6,-,N/A,,Overcast,50,2012-10-21 22:55:00
1:25 AM,57.2,57.2,100,30.06,-9999.0,NE,4.6,-,N/A,Fog,Fog,50,2012-10-21 23:25:00
1:55 AM,57.2,57.2,100,30.06,0.3,NE,4.6,-,N/A,Fog,Fog,50,2012-10-21 23:55:00
2:00 AM,56,56,100,30.08,0,NE,4.5,,,Fog,Fog,40,2012-10-22 00:00:00
2:25 AM,57.2,57.2,100,30.06,0.2,NE,4.6,-,N/A,Fog,Fog,50,2012-10-22 00:25:00
2:55 AM,57.2,57.2,100,30.06,0.2,ENE,6.9,-,N/A,Fog,Fog,70,2012-10-22 00:55:00
3:25 AM,57.2,57.2,100,30.06,0.2,ENE,6.9,-,N/A,Fog,Fog,70,2012-10-22 01:25:00
3:55 AM,57.2,57.2,100,30.06,0.2,East,4.6,-,N/A,Fog,Fog,80,2012-10-22 01:55:00
4:25 AM,57.2,55.4,94,30.06,0.2,East,4.6,-,N/A,Fog,Fog,80,2012-10-22 02:25:00
4:55 AM,55.4,55.4,100,30.06,0.2,East,4.6,-,N/A,Fog,Fog,90,2012-10-22 02:55:00
5:00 AM,56,56,100,30.09,0,ESE,4.5,,,Fog,Fog,120,2012-10-22 03:00:00
5:25 AM,55.4,55.4,100,30.06,0.2,ENE,4.6,-,N/A,Fog,Fog,60,2012-10-22 03:25:00
5:55 AM,55.4,55.4,100,30.06,0.2,ENE,4.6,-,N/A,Fog,Fog,70,2012-10-22 03:55:00
6:25 AM,55.4,55.4,100,30.06,0.2,ENE,5.8,-,N/A,Fog,Fog,60,2012-10-22 04:25:00
6:55 AM,55.4,55.4,100,30.06,0.2,ENE,4.6,-,N/A,Fog,Fog,70,2012-10-22 04:55:00
7:25 AM,55.4,55.4,100,30.06,0.2,East,5.8,-,N/A,Fog,Fog,80,2012-10-22 05:25:00
7:55 AM,55.4,55.4,100,30.09,0.2,ENE,4.6,-,N/A,Fog,Fog,70,2012-10-22 05:55:00
8:25 AM,55.4,55.4,100,30.09,0.2,East,5.8,-,N/A,Fog,Fog,80,2012-10-22 06:25:00
8:55 AM,55.4,55.4,100,30.09,0.2,East,5.8,-,N/A,Fog,Fog,80,2012-10-22 06:55:00
9:25 AM,55.4,55.4,100,30.09,0.2,ENE,6.9,-,N/A,Fog,Fog,70,2012-10-22 07:25:00
9:55 AM,55.4,55.4,100,30.12,0.2,ENE,4.6,-,N/A,Fog,Fog,70,2012-10-22 07:55:00
10:25 AM,55.4,55.4,100,30.12,0.1,ENE,4.6,-,N/A,Fog,Fog,70,2012-10-22 08:25:00
10:55 AM,55.4,55.4,100,30.12,0.2,East,3.5,-,N/A,Fog,Fog,80,2012-10-22 08:55:00
11:00 AM,56,56,99,30.14,0,ENE,2.2,,,Fog,Fog,60,2012-10-22 09:00:00
11:25 AM,55.4,55.4,100,30.12,0.7,ENE,3.5,-,N/A,,Overcast,70,2012-10-22 09:25:00
11:55 AM,57.2,57.2,100,30.12,-9999.0,NE,4.6,-,N/A,,Mostly Cloudy,50,2012-10-22 09:55:00
12:25 PM,59.0,59.0,100,30.12,3.1,Variable,2.3,-,N/A,,Mist,0,2012-10-22 10:25:00
12:55 PM,62.6,60.8,94,30.12,4.3,NE,3.5,-,N/A,,Unknown,50,2012-10-22 10:55:00
1:25 PM,64.4,60.8,88,30.12,5.0,NE,3.5,-,N/A,,Unknown,40,2012-10-22 11:25:00
1:55 PM,66.2,60.8,83,30.12,6.2,NE,3.5,-,N/A,,Unknown,50,2012-10-22 11:55:00
2:00 PM,66,61,80,30.14,7,NE,4.5,,,,Partly Cloudy,40,2012-10-22 12:00:00
2:25 PM,68.0,62.6,83,30.12,6.2,NE,4.6,-,N/A,,Unknown,40,2012-10-22 12:25:00
2:55 PM,68.0,62.6,83,30.12,6.2,ENE,4.6,-,N/A,,Unknown,60,2012-10-22 12:55:00
3:25 PM,69.8,62.6,78,30.12,6.2,NE,4.6,-,N/A,,Unknown,50,2012-10-22 13:25:00
3:55 PM,69.8,62.6,78,30.12,6.2,NE,6.9,-,N/A,,Unknown,50,2012-10-22 13:55:00
4:25 PM,69.8,62.6,78,30.12,6.2,NE,5.8,-,N/A,,Unknown,50,2012-10-22 14:25:00
4:55 PM,69.8,62.6,78,30.12,6.2,NE,6.9,-,N/A,,Unknown,50,2012-10-22 14:55:00
5:00 PM,69,63,76,30.15,7,NE,4.5,,,,,40,2012-10-22 15:00:00
5:25 PM,69.8,64.4,83,30.12,6.2,NE,4.6,-,N/A,,Unknown,50,2012-10-22 15:25:00
5:55 PM,68.0,62.6,83,30.12,6.2,NE,3.5,-,N/A,,Unknown,50,2012-10-22 15:55:00
6:25 PM,66.2,62.6,88,30.15,6.2,NNE,3.5,-,N/A,,Unknown,30,2012-10-22 16:25:00
6:55 PM,64.4,62.6,94,30.15,3.7,NE,4.6,-,N/A,,Unknown,40,2012-10-22 16:55:00
7:25 PM,62.6,62.6,100,30.15,4.3,ENE,4.6,-,N/A,,Unknown,60,2012-10-22 17:25:00
7:55 PM,62.6,62.6,100,30.15,4.3,NE,5.8,-,N/A,,Partly Cloudy,50,2012-10-22 17:55:00
8:00 PM,64,62,92,30.18,4,ENE,4.5,,,,Mist,70,2012-10-22 18:00:00
8:25 PM,62.6,62.6,100,30.15,4.3,NE,6.9,-,N/A,,Unknown,50,2012-10-22 18:25:00
8:55 PM,62.6,60.8,94,30.18,4.3,NNE,4.6,-,N/A,,Unknown,20,2012-10-22 18:55:00
9:25 PM,60.8,60.8,100,30.18,3.7,ENE,4.6,-,N/A,,Unknown,60,2012-10-22 19:25:00
9:55 PM,60.8,59.0,94,30.18,4.3,NE,3.5,-,N/A,,Unknown,40,2012-10-22 19:55:00
10:25 PM,60.8,59.0,94,30.18,3.7,NE,4.6,-,N/A,,Unknown,50,2012-10-22 20:25:00
10:55 PM,60.8,59.0,94,30.18,4.3,NE,4.6,-,N/A,,Unknown,40,2012-10-22 20:55:00
11:00 PM,59,59,98,30.20,4,NNE,4.5,,,,Mist,30,2012-10-22 21:00:00
11:25 PM,57.2,57.2,100,30.18,3.1,NE,2.3,-,N/A,,Mist,50,2012-10-22 21:25:00
11:55 PM,55.4,55.4,100,30.18,-9999.0,ENE,2.3,-,N/A,,Mist,70,2012-10-22 21:55:00